This demonstration page uses our WeatherBlox Daily Observations layout. Learn more.

Left ArrowRight Arrow

38.20091, -84.87328

Hourly Observations for December 26, 2022

Temp ( °F °C ) Dew Point ( °F °C ) Humidity (%) Winds ( mph kmh ) Pressure ( in mb ) Visibility ( mi km ) Precip ( " mm )
12:53 am 00:53 Clear 10 -12.2 3 -16.1 73 73 S 3 6 30.24 1024 10 16 0.00 0.00
1:53 am 01:53 Clear 10 -12.2 3 -16.1 73 73 SSW 5 7 30.25 1024 10 16 0.00 0.00
2:53 am 02:53 Clear 14 -10 5 -15 67 67 S 6 9 30.24 1024 10 16 0.00 0.00
3:53 am 03:53 Mostly Clear 16 -8.9 5 -15 61 61 SSW 5 7 30.24 1024 10 16 0.00 0.00
4:53 am 04:53 Cloudy 17 -8.3 6 -14.4 61 61 S 7 11 30.24 1024 10 16 0.00 0.00
5:53 am 05:53 Mostly Cloudy 17 -8.3 5 -15 58 58 S 6 9 30.23 1024 10 16 0.00 0.00
6:53 am 06:53 Mostly Cloudy 18 -7.8 7 -13.9 61 61 SSE 6 9 30.24 1024 10 16 0.00 0.00
7:53 am 07:53 Cloudy 19 -7.2 7 -13.9 59 59 S 7 11 30.24 1024 10 16 0.00 0.00
8:53 am 08:53 Cloudy 20 -6.7 9 -12.8 62 62 SSE 3 6 30.24 1024 10 16 0.00 0.00
9:44 am 09:44 Cloudy with Light Snow 21 -6.1 10 -12.2 62 62 S 7 11 30.27 1025 2 3 0.01 0.13
9:53 am 09:53 Cloudy with Light Snow 20 -6.7 12 -11.1 71 71 S 8 13 30.25 1025 2 3 0.01 0.13
10:21 am 10:21 Cloudy with Light Snow 20 -6.7 14 -10 77 77 S 8 13 30.27 1025 3 4 0.01 0.13
10:53 am 10:53 Cloudy with Light Snow 21 -6.1 16 -8.9 80 80 SSE 8 13 30.24 1024 2 3 0.01 0.13
11:35 am 11:35 Cloudy with Light Snow 22 -5.6 17 -8.3 81 81 S 12 19 30.25 1024 2 3 0.01 0.13
11:42 am 11:42 Cloudy with Light Snow 23 -5 17 -8.3 78 78 S 10 17 30.25 1024 3 5 0.01 0.13
11:53 am 11:53 Cloudy with Light Snow 23 -5 18 -7.8 81 81 S 10 17 30.22 1024 4 6 0.01 0.13
12:06 pm 12:06 Cloudy with Light Snow 23 -5 18 -7.8 81 81 S 8 13 30.24 1024 3 4 0.01 0.13
12:18 pm 12:18 Cloudy with Light Snow 24 -4.4 18 -7.8 77 77 SSE 9 15 30.24 1024 3 5 0.01 0.13
12:53 pm 12:53 Cloudy with Light Snow 24 -4.4 17 -8.3 74 74 SSE 13 20 30.20 1023 6 10 0.01 0.13
1:15 pm 13:15 Cloudy with Light Snow 24 -4.4 18 -7.8 77 77 S 13 20 30.22 1023 3 5 0.01 0.13
1:24 pm 13:24 Cloudy with Light Snow 24 -4.4 18 -7.8 77 77 SSE 9 15 30.21 1023 5 8 0.01 0.13
1:53 pm 13:53 Cloudy 25 -3.9 19 -7.2 78 78 SSE 12 19 30.18 1022 10 16 0.01 0.13
2:53 pm 14:53 Cloudy 26 -3.3 20 -6.7 77 77 S 8 13 30.17 1022 10 16 0.00 0.00
3:53 pm 15:53 Cloudy 27 -2.8 21 -6.1 78 78 S 5 7 30.18 1022 10 16 0.00 0.00
4:10 pm 16:10 Cloudy 27 -2.8 21 -6.1 78 78 SSW 5 7 30.21 1023 10 16 0.00 0.00
4:53 pm 16:53 Cloudy 28 -2.2 22 -5.6 77 77 S 6 9 30.21 1023 10 16 0.00 0.00
5:53 pm 17:53 Cloudy 28 -2.2 22 -5.6 77 77 SSW 6 9 30.22 1023 10 16 0.00 0.00
6:53 pm 18:53 Cloudy 28 -2.2 23 -5 81 81 S 5 7 30.22 1024 10 16 0.00 0.00
7:20 pm 19:20 Cloudy 28 -2.2 23 -5 81 81 SSW 6 9 30.26 1025 10 16 0.00 0.00
7:53 pm 19:53 Cloudy 28 -2.2 23 -5 81 81 SSW 6 9 30.24 1024 10 16 0.00 0.00
8:53 pm 20:53 Cloudy 28 -2.2 23 -5 81 81 SW 5 7 30.25 1024 10 16 0.00 0.00
9:53 pm 21:53 Cloudy 28 -2.2 23 -5 81 81 SSW 5 7 30.26 1025 10 16 0.00 0.00
10:53 pm 22:53 Cloudy 28 -2.2 23 -5 81 81 SSW 5 7 30.27 1025 10 16 0.00 0.00
11:53 pm 23:53 Cloudy 28 -2.2 23 -5 81 81 WSW 3 6 30.27 1025 10 16 0.00 0.00

Powered by AerisWeather